DECAYED

CZ-4B DEB, 56090 (Decayed)

Orbit data source: Space-Track

CZ-4B DEB, 56090 was space debris in SSO originally from a launch on Wed, 24 Oct 2018 UTC launched from the Taiyaun Space Center, China (TSC). Debris objects in space refer to the collection of defunct objects orbiting the Earth. Examples of debris include non-operational satellites, rocket bodies, and fragments generated from explosions, collisions, or faulty payload assembly.

Not visible in the next 10 days
Identifier
56090, 2018-081L
Orbit
Decayed
Country
Flag of CNCN / PRC
Related business
Manufacturer
Unknown
Mission
Decayed spacecraft
Bus & Motor
Unknown
Mass
Unknown
Launch date (UTC)
2018-10-24 (7 years ago)
Launch vehicle
Unknown
Launch site
Taiyaun Space Center, China (TSC)
Object type
Payload
Rocket body
Debris
Shape & HBR
Unknown
Radar Cross Section
Small (<0.1 m²)

Expand to show TLE details & history
Last TLE update: 11 months ago

TLE from 11 months ago
0 CZ-4B DEB
1 56090U 18081L   24300.11855891  .00133796  00000-0  14258-1 0  9995
2 56090  99.4655 181.3627 0112638 129.4306 231.6938 14.83624948 84827
Epoch: 2024-10-26T02:50Z
TLE epoch observation values (Epoch: 2024-10-26T02:50:43.489Z)
Latitude
-0.00007°
Longitude
103.70346°
Altitude
670.279 km
Speed
7.495 km/s
True Right ascension
12h 05m 27s
True Declination
0° 00' 00"
Sunlit
Object was in daylight at epoch
Visualization orbit readout
Latitude
Unknown
Longitude
Unknown
Altitude
Unknown
Speed
Unknown
Apparent Right ascension
Unknown
Apparent Declination
Unknown
Sunlit
N/A
Visualization observer readout
Local Sidereal Time
23:29:09
Azimuth
Unknown
Elevation
Unknown
Doppler factor
Unknown
Orbital elements
Apogee altitude
693.787 km
Perigee altitude
536.248 km
Semi-major axis
6,993.155 km
Eccentricity
0.01126
Inclination
99.4655°
RAAN
181.3627°
Arg. of periapsis
129.4306°
True anomaly
230.68976°
Mean anomaly
231.6938°
Eccentric anomaly
231.1909°
Mean motion
3.71136 °/min
Orbital period
97 mins
BSTAR
0.014258
Loading maneuver chart data...
Computing Atmospheric mass density...
Loading historical data...
Loading historical data...
Loading historical data...
Loading historical data...
Loading historical data...
Loading historical data...
Loading historical data...

Documentation

Showing up to 5 results
|